Latrobe, PA

6:43 PM EDT on August 20, 2019 (GMT -0400)
Arnold Palmer Regional

Weather History for KLBE - May, 2019

Change the Weather History Date:

Wednesday, May 22, 2019

  Actual Average Record
Temperature  
Mean Temperature 60 °F -  
Max Temperature 75 °F 70 °F 87 °F (2013)
Min Temperature 44 °F 49 °F 32 °F (2002)
Degree Days  
Heating Degree Days 6    
Growing Degree Days 10 (Base 50)    
Moisture  
Dew Point 48 °F    
Average Humidity 69    
Maximum Humidity 100    
Minimum Humidity 43    
Precipitation  
Precipitation 0.00 in - - ()
Sea Level Pressure  
Sea Level Pressure 30.15 in    
Wind  
Wind Speed 3 mph (East)    
Max Wind Speed 14 mph    
Max Gust Speed 14 mph    
Visibility 10 miles    
Events      
Averages and records for this station are not official NWS values.
T = Trace of Precipitation, MM = Missing Value Source: NWS Daily Summary

Daily Weather History Graph

Daily Weather History Graph

Search for Another Location

Airport or City:

Astronomy

May. 22, 2019 Rise Set
Actual Time 5:55 AM EDT 8:33 PM EDT
Civil Twilight 5:24 AM EDT 9:04 PM EDT
Nautical Twilight 4:45 AM EDT 9:43 PM EDT
Astronomical Twilight 4:01 AM EDT 10:28 PM EDT
Moon No Moon Rise 9:02 AM EDT (5/22)
Length of Visible Light 15h 40m
Length of Day
14h 37m
Waning Gibbous, 85% of the Moon is Illuminated
May 22
Waning Gibbous
May 26
Last Quarter
Jun 3
New
Jun 10
First Quarter
Jun 17
Full

Hourly Weather History & Observations

Time (EDT) Temp. Windchill Dew Point Humidity Pressure Visibility Wind Dir Wind Speed Gust Speed Precip Events Conditions
12:15 AM 48.2 °F - 48.2 °F 100% 30.17 in 10.0 mi Calm Calm - N/A   Clear
12:35 AM 48.2 °F - 48.2 °F 100% 30.19 in 10.0 mi Calm Calm - N/A   Clear
12:55 AM 48.2 °F - 48.2 °F 100% 30.18 in 10.0 mi Calm Calm - N/A   Clear
1:15 AM 46.4 °F - 46.4 °F 100% 30.18 in 10.0 mi Calm Calm - N/A   Clear
1:35 AM 46.4 °F - 46.4 °F 100% 30.18 in 10.0 mi Calm Calm - N/A   Clear
1:55 AM 46.4 °F - 46.4 °F 100% 30.17 in 10.0 mi Calm Calm - N/A   Clear
2:15 AM 46.4 °F - 46.4 °F 100% 30.17 in 10.0 mi Calm Calm - N/A   Clear
2:35 AM 46.4 °F - 46.4 °F 100% 30.17 in 10.0 mi Calm Calm - N/A   Clear
2:55 AM 44.6 °F - 44.6 °F 100% 30.16 in 10.0 mi Calm Calm - N/A   Clear
3:15 AM - - - N/A% 30.15 in 10.0 mi North 4.6 mph - N/A   Clear
3:35 AM 46.4 °F 44.3 °F 46.4 °F 100% 30.15 in 10.0 mi NNE 4.6 mph - N/A   Clear
3:55 AM 44.6 °F - 44.6 °F 100% 30.15 in 10.0 mi Calm Calm - N/A   Clear
4:15 AM 46.4 °F - 46.4 °F 100% 30.15 in 10.0 mi Calm Calm - N/A   Clear
4:35 AM 46.4 °F 44.3 °F 46.4 °F 100% 30.14 in 10.0 mi NE 4.6 mph - N/A   Clear
4:55 AM 53.6 °F - 41.0 °F 62% 30.15 in 10.0 mi Variable 4.6 mph 11.5 mph N/A   Clear
5:15 AM 53.6 °F - 41.0 °F 62% 30.15 in 10.0 mi Calm Calm - N/A   Clear
5:35 AM 55.4 °F - 39.2 °F 54% 30.15 in 10.0 mi Calm Calm 11.5 mph N/A   Clear
5:55 AM 55.4 °F - 39.2 °F 54% 30.16 in 10.0 mi Variable 4.6 mph 13.8 mph N/A   Clear
6:50 AM 55.4 °F - 39.2 °F 54% 30.18 in 10.0 mi East 6.9 mph - N/A   Scattered Clouds
7:45 AM 57.2 °F - 39.2 °F 51% 30.18 in 10.0 mi ESE 6.9 mph - N/A   Partly Cloudy
8:15 AM 57.2 °F - 39.2 °F 51% 30.18 in 10.0 mi East 6.9 mph - N/A   Scattered Clouds
8:50 AM 57.2 °F - 39.2 °F 51% 30.18 in 10.0 mi East 6.9 mph - N/A   Mostly Cloudy
9:50 AM 60.8 °F - 41.0 °F 48% 30.18 in 10.0 mi East 6.9 mph - N/A   Mostly Cloudy
11:53 AM 66.2 °F - 44.6 °F 46% 30.18 in 10.0 mi ESE 11.5 mph - N/A   Partly Cloudy
12:53 PM 71.6 °F - 48.2 °F 43% 30.16 in 10.0 mi ESE 11.5 mph - N/A   Partly Cloudy
1:53 PM 73.4 °F - 50.0 °F 44% 30.16 in 10.0 mi ESE 10.4 mph - N/A   Partly Cloudy
2:50 PM 73.4 °F - 51.8 °F 47% 30.15 in 10.0 mi East 11.5 mph - N/A   Scattered Clouds
4:50 PM 75.2 °F - 53.6 °F 47% 30.10 in 10.0 mi East 13.8 mph - N/A   Scattered Clouds
5:50 PM 75.2 °F - 55.4 °F 50% 30.09 in 10.0 mi East 11.5 mph - N/A   Mostly Cloudy
6:50 PM 73.4 °F - 55.4 °F 53% 30.10 in 10.0 mi East 13.8 mph - N/A   Mostly Cloudy
7:50 PM 71.6 °F - 53.6 °F 53% 30.11 in 10.0 mi ESE 9.2 mph - N/A   Mostly Cloudy
8:50 PM 69.8 °F - 53.6 °F 56% 30.10 in 10.0 mi Calm Calm - N/A   Mostly Cloudy
9:50 PM 68.0 °F - 53.6 °F 60% 30.10 in 10.0 mi South 6.9 mph - N/A   Clear
10:15 PM 69.8 °F - 53.6 °F 56% 30.12 in 10.0 mi Variable 4.6 mph 11.5 mph N/A   Clear
10:35 PM 69.8 °F - 53.6 °F 56% 30.12 in 10.0 mi Variable 4.6 mph - N/A   Clear
10:55 PM 69.8 °F - 53.6 °F 56% 30.12 in 10.0 mi Calm Calm 11.5 mph N/A   Clear
11:15 PM 69.8 °F - 53.6 °F 56% 30.11 in 10.0 mi Calm Calm - N/A   Clear
11:35 PM 69.8 °F - 55.4 °F 60% 30.11 in 10.0 mi Calm Calm - N/A   Clear
11:55 PM 69.8 °F - 55.4 °F 60% 30.11 in 10.0 mi SSE 5.8 mph - N/A   Clear